Regional Weather Roundup
Issued by NWS

Home | Current Version | Previous Version | Graphics & Text | Print | Product List | Glossary Off
Versions: 1 2 3 4 5 6 7 8 9 10 11 12 13 14 15 16 17 18 19 20 21 22 23 24 25 26 27 28 29 30 31 32 33 34 35 36 37 38 39 40 41 42 43 44 45 46 47 48 49 50

101
ASUS43 KMKX 291000
RWRWI

WISCONSIN REGIONAL WEATHER ROUNDUP
NATIONAL WEATHER SERVICE MILWAUKEE/SULLIVAN WI
500 AM CDT SAT APR 29 2017

NOTE: "FAIR" INDICATES FEW OR NO CLOUDS BELOW 12,000 FEET WITH NO
SIGNIFICANT WEATHER AND/OR OBSTRUCTIONS TO VISIBILITY.

WIZ001-002-006>008-014>016-023>028-291100-
NORTHWEST WISCONSIN

CITY           SKY/WX    TMP DP  RH WIND       PRES   REMARKS
SUPERIOR ARPT  CLEAR     25  24  99 CALM      30.24F
ASHLAND        PTCLDY    25  22  88 NW6       30.21F WCI  18
HAYWARD        CLOUDY    25  22  88 NE6       30.18F WCI  18
SIREN          CLEAR     30  28  90 CALM      30.20F
CUMBERLAND     PTCLDY    32  27  80 N6        30.17F WCI  26
RICE LAKE      PTCLDY    32  28  87 CALM      30.20F
CHETEK         NOT AVBL
LADYSMITH      CLEAR     32  27  83 N6        30.19F WCI  26
EAU CLAIRE     NOT AVBL
MENOMONIE      CLOUDY    35  28  74 N7        30.19S WCI  29
NEW RICHMOND   CLOUDY    33  27  79 NE5       30.18F WCI  28
OSCEOLA        CLEAR     35  27  73 NE3       30.21F
$$

WIZ003>005-009-010-017-018-291100-
NORTH CENTRAL WISCONSIN

CITY           SKY/WX    TMP DP  RH WIND       PRES   REMARKS
MANITOWISH WTR CLEAR     28  26  89 N5        30.16F WCI  23
ARBOR VITAE    CLEAR     28  26  90 N5        30.15F WCI  23
WOODRUFF       CLEAR     28  26  90 N5        30.15F WCI  23
RHINELANDER    CLEAR     31  26  82 CALM      30.19R
EAGLE RIVER    CLEAR     28  23  81 N5        30.15S WCI  23
LAND O LAKES   CLEAR     30  24  78 N7        30.16F WCI  23
PHILLIPS       CLEAR     28  26  90 N5        30.15F WCI  23
TOMAHAWK       CLEAR     29  25  85 CALM      30.18R
MEDFORD        CLEAR     30  25  82 NE3       30.19R
MERRILL        CLEAR     29  27  92 CALM      30.18R
$$

WIZ029-030-035-036-043>047-291100-
CENTRAL WISCONSIN

CITY           SKY/WX    TMP DP  RH WIND       PRES   REMARKS
WAUSAU         CLEAR     31  26  82 N3        30.16R
MOSINEE        CLOUDY    32  28  86 N9        30.18R WCI  24
MARSHFIELD     PTCLDY    33  26  75 NE9       30.19R WCI  25
STEVENS POINT  MOCLDY    31  25  78 N7        30.18R WCI  25
WAUPACA        CLOUDY    37  27  65 NE6       30.20R WCI  33
WAUTOMA        PTCLDY    37  28  70 NE8       30.24R WCI  31
WISC RAPIDS    MOCLDY    35  27  72 S8        30.29R WCI  29
CAMP DOUGLAS   NOT AVBL
$$

WIZ011>013-019>022-031-037>040-048>050-291100-
NORTHEAST WISCONSIN

CITY           SKY/WX    TMP DP  RH WIND       PRES   REMARKS
ANTIGO         CLEAR     30  26  85 N8        30.17R WCI  22
SHAWANO        CLOUDY    35  28  75 N8        30.18R WCI  29
OCONTO         NOT AVBL
STURGEON BAY   CLEAR     36  26  67 VRB6      30.23R WCI  31
GREEN BAY      CLEAR     36  28  73 N7        30.23R WCI  30
MANITOWOC      NOT AVBL
APPLETON       CLEAR     36  25  64 NE7       30.19R WCI  30
CLINTONVILLE   PTCLDY    34  27  75 N3        30.18R
OSHKOSH        CLEAR     38  29  70 N12       30.20R WCI  30
$$

WIZ032>034-041-042-053>061-291100-
SOUTHWEST WISCONSIN

CITY           SKY/WX    TMP DP  RH WIND       PRES   REMARKS
LA CROSSE      CLOUDY    41  30  65 NE10      30.19R
SPARTA         CLOUDY    37  32  81 SE8       30.23R WCI  31
VIROQUA        CLOUDY    38  32  78 E5        30.19R WCI  35
BOSCOBEL       CLOUDY    41  35  79 NE6       30.15F
PRAIRIE DU CHI CLOUDY    40  34  77 N6        30.15F
PLATTEVILLE    PTCLDY    43  38  83 N15G21    30.09F
$$

WIZ056-057-062-063-064-067-068-291100-
SOUTH CENTRAL WISCONSIN

CITY           SKY/WX    TMP DP  RH WIND       PRES   REMARKS
REEDSBURG      CLEAR     39  32  77 CALM      30.19R
BARABOO/DELLS  CLEAR     39  31  74 N3        30.18R
LONE ROCK      NOT AVBL
MINERAL POINT  CLOUDY    43  36  75 N15G21    30.10F
MADISON        MOCLDY    42  33  70 N13       30.14R
MIDDLETON      CLOUDY    44  34  68 NE12      30.14R
WATERTOWN      CLOUDY    43  34  71 NE10G18   30.12S
MONROE         CLOUDY    43  37  81 NE21G26   30.07S
JANESVILLE     CLOUDY    45  37  76 NE12G17   30.09R
$$

WIZ051-052-058>065-066-070>072-291100-
SOUTHEAST WISCONSIN

CITY           SKY/WX    TMP DP  RH WIND       PRES   REMARKS
MILWAUKEE      CLOUDY    43  33  68 NE13      30.13R
WAUKESHA       CLOUDY    39  32  75 NE15G23   30.13S WCI  31
MILWAUKEE/TIMM CLOUDY    41  30  65 NE15G21   30.14S
RACINE         CLOUDY    42  34  73 NE16G28   30.14R
KENOSHA        CLOUDY    43  33  68 NE15G24   30.11R
FOND DU LAC    PTCLDY    41  28  60 NE10      30.20R
SHEBOYGAN      CLOUDY    39  35  86 NE14      30.18R WCI  31
WEST BEND      CLOUDY    41  34  75 NE9       30.14S
JUNEAU         CLOUDY    42  32  67 N9        30.16R
$$

LSZ147-162-291100-
LAKE SUPERIOR

STATION/POSITION TIME  TEMP    WIND        PRES    WAVE
                       AIR SEA DIR/SP/G            HT/PER
                 (UTC) (F)     (DEG/KT/KT) (MB)    (FT/S)
DEVILS ISLAND    0900   36     230/  6/  6 1025.0R
PORT WING        0830   29     170/  4/  4 1024.0R
SAXON HARBOR     0940   27     200/  3/  5 1023.4F
$$

LMZ867-665-643>646-291100-
LAKE MICHIGAN

STATION/POSITION TIME  TEMP    WIND        PRES    WAVE
                       AIR SEA DIR/SP/G            HT/PER
                 (UTC) (F)     (DEG/KT/KT) (MB)    (FT/S)
CHAMBERS ISLAND  0940   36     340/ 13/ 16 1021.7R
N MID LAKE BUOY  0850   37 37  350/ 12/ 16 1021.9R   2/ 4
NORTHPORT PIER   0940   37     340/ 13/ 17 1021.7R
KEWAUNEE LAKESHO 0930   38      20/ 11/ 17 1022.1R
SHEBOYGAN LAKESH 0900   41      60/ 11/ 13 1021.3R
PORT WASHINGTON  0940   42      30/ 10/ 15 1021.7R
MILWAUKEE LAKESH 0930   42      20/ 16/ 19   N/A
S MID LAKE BUOY  0850   42 41   20/ 16/ 19 1018.6F   2/ 4
KENOSHA   LAKESH 0900   43      20/ 19/ 24 1018.6
$$

TC  - TEMPERATURE IN CELSIUS
VSB - VISIBILITY IN STATUTE MILES
WCI - WIND CHILL INDEX
HX  - HEAT INDEX





USA.gov is the U.S. government's official web portal to all federal, state and local government web resources and services.